Time,TemperatureF,DewpointF,PressureIn,WindDirection,WindDirectionDegrees,WindSpeedMPH,WindSpeedGustMPH,Humidity,HourlyPrecipIn,Conditions,Clouds,dailyrainin,SoftwareType,DateUTC
2013-08-14 00:23:00,67.0,65.0,-100.00,NNW,332,2.0,5.0,95,0.00,,,0.62,,2013-08-14 04:23:00,
2013-08-14 00:32:00,67.0,65.0,-100.00,NNW,332,2.0,5.0,95,0.00,,,0.62,,2013-08-14 04:32:00,
2013-08-14 00:52:00,65.0,62.0,-100.00,North,352,1.0,10.0,92,0.00,,,0.58,,2013-08-14 04:52:00,
2013-08-14 01:12:00,64.0,61.0,-100.00,NNW,342,2.0,7.0,92,0.00,,,0.58,,2013-08-14 05:12:00,
2013-08-14 01:22:00,63.0,60.0,-100.00,NNW,337,2.0,7.0,91,0.00,,,0.58,,2013-08-14 05:22:00,
2013-08-14 01:42:00,63.0,60.0,-100.00,NNW,333,2.0,6.0,90,0.00,,,0.58,,2013-08-14 05:42:00,
2013-08-14 01:52:00,62.0,60.0,-100.00,NNW,342,1.0,4.0,93,0.00,,,0.58,,2013-08-14 05:52:00,
2013-08-14 02:11:00,62.0,60.0,-100.00,NNW,344,0.0,3.0,94,0.00,,,0.58,,2013-08-14 06:11:00,
2013-08-14 02:21:00,62.0,58.0,-100.00,NNW,330,3.0,12.0,88,0.00,,,0.58,,2013-08-14 06:21:00,
2013-08-14 02:52:00,60.0,55.0,-100.00,NNW,330,3.0,9.0,83,0.00,,,0.58,,2013-08-14 06:52:00,
2013-08-14 03:11:00,59.0,53.0,-100.00,NNW,332,4.0,13.0,79,0.00,,,0.58,,2013-08-14 07:11:00,
2013-08-14 03:21:00,59.0,50.0,-100.00,NNW,332,5.0,13.0,71,0.00,,,0.58,,2013-08-14 07:21:00,
2013-08-14 03:42:00,58.0,49.0,-100.00,NNW,329,6.0,11.0,70,0.00,,,0.58,,2013-08-14 07:42:00,
2013-08-14 03:52:00,58.0,49.0,-100.00,NNW,332,5.0,11.0,72,0.00,,,0.58,,2013-08-14 07:52:00,
2013-08-14 04:11:00,58.0,49.0,-100.00,NNW,329,5.0,13.0,71,0.00,,,0.58,,2013-08-14 08:11:00,
2013-08-14 04:21:00,56.0,49.0,-100.00,NNW,335,2.0,6.0,77,0.00,,,0.58,,2013-08-14 08:21:00,
2013-08-14 04:31:00,56.0,49.0,-100.00,NNW,335,2.0,6.0,77,0.00,,,0.58,,2013-08-14 08:31:00,
2013-08-14 04:52:00,55.0,49.0,-100.00,NNW,337,2.0,8.0,80,0.00,,,0.58,,2013-08-14 08:52:00,
2013-08-14 05:11:00,55.0,49.0,-100.00,NNW,333,3.0,7.0,80,0.00,,,0.58,,2013-08-14 09:11:00,
2013-08-14 05:21:00,55.0,49.0,-100.00,NW,326,4.0,8.0,79,0.00,,,0.58,,2013-08-14 09:21:00,
2013-08-14 05:43:00,55.0,49.0,-100.00,NNW,328,3.0,9.0,80,0.00,,,0.58,,2013-08-14 09:43:00,
2013-08-14 05:53:00,54.0,49.0,-100.00,NNW,330,4.0,9.0,83,0.00,,,0.57,,2013-08-14 09:53:00,
2013-08-14 06:23:00,53.0,50.0,-100.00,NNW,347,1.0,4.0,88,0.00,,,0.48,,2013-08-14 10:23:00,
2013-08-14 06:42:00,53.0,48.0,-100.00,NNW,336,2.0,10.0,85,0.00,,,0.48,,2013-08-14 10:42:00,
2013-08-14 07:11:00,54.0,49.0,-100.00,NNW,335,4.0,10.0,83,0.00,,,0.46,,2013-08-14 11:11:00,
2013-08-14 07:21:00,53.0,49.0,-100.00,NNW,337,4.0,13.0,84,0.00,,,0.41,,2013-08-14 11:21:00,
2013-08-14 07:42:00,53.0,48.0,-100.00,NNW,337,3.0,10.0,82,0.00,,,0.35,,2013-08-14 11:42:00,
2013-08-14 07:52:00,53.0,48.0,-100.00,NNW,335,3.0,9.0,83,0.00,,,0.30,,2013-08-14 11:52:00,
2013-08-14 08:11:00,53.0,48.0,-100.00,NNW,330,3.0,7.0,84,0.00,,,0.25,,2013-08-14 12:11:00,
2013-08-14 08:21:00,53.0,49.0,-100.00,NNW,328,3.0,8.0,84,0.00,,,0.24,,2013-08-14 12:21:00,
2013-08-14 08:42:00,54.0,49.0,-100.00,NNW,329,3.0,7.0,84,0.00,,,0.20,,2013-08-14 12:42:00,
2013-08-14 08:52:00,56.0,50.0,-100.00,NNW,343,3.0,12.0,79,0.00,,,0.17,,2013-08-14 12:52:00,
2013-08-14 09:22:00,58.0,51.0,-100.00,NNW,340,3.0,8.0,75,0.00,,,0.14,,2013-08-14 13:22:00,
2013-08-14 09:42:00,60.0,50.0,-100.00,NNW,340,2.0,12.0,71,0.00,,,0.14,,2013-08-14 13:42:00,
2013-08-14 10:11:00,60.0,47.0,-100.00,NNW,337,5.0,13.0,62,0.00,,,0.14,,2013-08-14 14:11:00,
2013-08-14 10:22:00,61.0,48.0,-100.00,NNW,332,7.0,18.0,62,0.00,,,0.14,,2013-08-14 14:22:00,
2013-08-14 10:52:00,63.0,48.0,-100.00,NNW,339,6.0,15.0,60,0.00,,,0.14,,2013-08-14 14:52:00,
2013-08-14 11:12:00,63.0,47.0,-100.00,NNW,332,7.0,19.0,57,0.00,,,0.14,,2013-08-14 15:12:00,
2013-08-14 11:22:00,64.0,48.0,-100.00,NNW,332,6.0,15.0,56,0.00,,,0.14,,2013-08-14 15:22:00,
2013-08-14 11:43:00,66.0,50.0,-100.00,NNW,329,5.0,13.0,56,0.00,,,0.14,,2013-08-14 15:43:00,
2013-08-14 11:57:00,65.0,49.0,-100.00,NNW,330,8.0,17.0,56,0.00,,,0.14,,2013-08-14 15:57:00,
2013-08-14 12:13:00,65.0,48.0,-100.00,NW,320,12.0,25.0,55,0.00,,,0.14,,2013-08-14 16:13:00,
2013-08-14 12:28:00,65.0,48.0,-100.00,NNW,332,6.0,19.0,53,0.00,,,0.14,,2013-08-14 16:28:00,
2013-08-14 12:43:00,67.0,51.0,-100.00,NNW,330,6.0,18.0,56,0.00,,,0.14,,2013-08-14 16:43:00,
2013-08-14 13:05:00,66.0,49.0,-100.00,NNW,328,9.0,23.0,54,0.00,,,0.14,,2013-08-14 17:05:00,
2013-08-14 13:20:00,67.0,48.0,-100.00,NNW,328,8.0,17.0,51,0.00,,,0.14,,2013-08-14 17:20:00,
2013-08-14 13:29:00,66.0,48.0,-100.00,NNW,333,6.0,14.0,52,0.00,,,0.14,,2013-08-14 17:29:00,
2013-08-14 13:44:00,68.0,49.0,-100.00,NNW,329,7.0,17.0,50,0.00,,,0.14,,2013-08-14 17:44:00,
2013-08-14 14:00:00,-999.0,-99.9,-100.00,NW,325,11.0,26.0,-999,-99.99,,,-99.99,,2013-08-14 18:00:00,
2013-08-14 14:33:00,-999.0,-99.9,-100.00,NNW,333,6.0,15.0,47,0.00,,,0.14,,2013-08-14 18:33:00,
2013-08-14 15:15:00,70.0,49.0,-100.00,NNW,328,9.0,19.0,48,0.00,,,0.14,,2013-08-14 19:15:00,
2013-08-14 15:35:00,70.0,50.0,-100.00,NW,325,8.0,24.0,48,0.00,,,0.14,,2013-08-14 19:35:00,
2013-08-14 15:42:00,71.0,51.0,-100.00,NNW,332,7.0,20.0,48,0.00,,,0.14,,2013-08-14 19:42:00,
2013-08-14 15:58:00,70.0,52.0,-100.00,NW,325,10.0,20.0,53,0.00,,,0.14,,2013-08-14 19:58:00,
2013-08-14 16:12:00,70.0,51.0,-100.00,NNW,329,7.0,20.0,50,0.00,,,0.14,,2013-08-14 20:12:00,
2013-08-14 16:49:00,71.0,48.0,-100.00,NNW,329,7.0,25.0,45,0.00,,,0.14,,2013-08-14 20:49:00,
2013-08-14 17:13:00,68.0,53.0,-100.00,NNW,332,4.0,13.0,58,0.00,,,0.14,,2013-08-14 21:13:00,
2013-08-14 17:24:00,69.0,49.0,-100.00,NNW,333,5.0,16.0,50,0.00,,,0.14,,2013-08-14 21:24:00,
2013-08-14 17:45:00,69.0,49.0,-100.00,NNW,336,5.0,15.0,49,0.00,,,0.14,,2013-08-14 21:45:00,
2013-08-14 17:55:00,67.0,53.0,-100.00,NNW,340,3.0,13.0,60,0.00,,,0.14,,2013-08-14 21:55:00,
2013-08-14 18:13:00,71.0,51.0,-100.00,NNW,335,4.0,10.0,49,0.00,,,0.14,,2013-08-14 22:13:00,
2013-08-14 18:23:00,70.0,50.0,-100.00,NNW,335,6.0,18.0,49,0.00,,,0.14,,2013-08-14 22:23:00,
2013-08-14 18:44:00,70.0,51.0,-100.00,NNW,328,7.0,20.0,51,0.00,,,0.14,,2013-08-14 22:44:00,
2013-08-14 18:55:00,69.0,50.0,-100.00,NNW,332,4.0,11.0,50,0.00,,,0.14,,2013-08-14 22:55:00,
2013-08-14 19:13:00,70.0,52.0,-100.00,NNW,330,3.0,9.0,53,0.00,,,0.13,,2013-08-14 23:13:00,
2013-08-14 19:25:00,68.0,51.0,-100.00,NNW,329,4.0,10.0,56,0.00,,,0.06,,2013-08-14 23:25:00,
2013-08-14 19:46:00,68.0,53.0,-100.00,NNW,330,3.0,9.0,58,0.00,,,0.00,,2013-08-14 23:46:00,
2013-08-14 19:56:00,67.0,51.0,-100.00,NNW,328,3.0,9.0,56,0.00,,,0.00,,2013-08-14 23:56:00,
2013-08-14 20:23:00,65.0,53.0,-100.00,North,354,1.0,5.0,67,0.00,,,0.00,,2013-08-15 00:23:00,
2013-08-14 20:43:00,62.0,54.0,-100.00,NNW,347,0.0,3.0,75,0.00,,,0.00,,2013-08-15 00:43:00,
2013-08-14 20:52:00,60.0,54.0,-100.00,NNW,343,0.0,2.0,80,0.00,,,0.00,,2013-08-15 00:52:00,
2013-08-14 21:16:00,59.0,54.0,-100.00,North,11,0.0,2.0,83,0.00,,,0.00,,2013-08-15 01:16:00,
2013-08-14 21:22:00,58.0,53.0,-100.00,NNE,21,0.0,0.0,83,0.00,,,0.00,,2013-08-15 01:22:00,
2013-08-14 21:52:00,57.0,53.0,-100.00,NNW,342,1.0,6.0,87,0.00,,,0.00,,2013-08-15 01:52:00,
2013-08-14 22:11:00,57.0,53.0,-100.00,NNE,14,0.0,4.0,88,0.00,,,0.00,,2013-08-15 02:11:00,
2013-08-14 22:21:00,57.0,53.0,-100.00,NNW,330,2.0,4.0,86,0.00,,,0.00,,2013-08-15 02:21:00,
2013-08-14 23:11:00,56.0,53.0,-100.00,NNW,329,2.0,5.0,87,0.00,,,0.00,,2013-08-15 03:11:00,
2013-08-14 23:22:00,56.0,52.0,-100.00,NNW,329,2.0,5.0,87,0.00,,,0.00,,2013-08-15 03:22:00,
2013-08-14 23:43:00,56.0,52.0,-100.00,NNW,329,3.0,9.0,87,0.00,,,0.00,,2013-08-15 03:43:00,
2013-08-14 23:53:00,56.0,52.0,-100.00,NNW,333,2.0,6.0,86,0.00,,,0.00,,2013-08-15 03:53:00,